North Las Vegas, NV

8:36 AM PDT on June 25, 2018 (GMT -0700)
North Las Vegas

Weather History for KVGT - June, 2018

Change the Weather History Date:

Wednesday, June 13, 2018

  Actual Average Record
Temperature  
Mean Temperature 92 °F 84 °F  
Max Temperature 108 °F 97 °F 108 °F (2018)
Min Temperature 76 °F 72 °F 64 °F (2010)
Degree Days  
Heating Degree Days 0 0  
Month to date heating degree days 0 0  
Since 1 July heating degree days 1482 2044  
Cooling Degree Days 27 19  
Month to date cooling degree days 298 229  
Year to date cooling degree days 929 705  
Growing Degree Days 42 (Base 50)    
Moisture  
Dew Point 24 °F    
Average Humidity 10    
Maximum Humidity 18    
Minimum Humidity 2    
Precipitation  
Precipitation 0.00 in 0.01 in 0.22 in (1955)
Month to date precipitation 0.00 0.05  
Year to date precipitation 1.82 2.64  
Sea Level Pressure  
Sea Level Pressure 29.71 in    
Wind  
Wind Speed 8 mph (SSW)    
Max Wind Speed 21 mph    
Max Gust Speed 25 mph    
Visibility 10 miles    
Events      
T = Trace of Precipitation, MM = Missing Value Source: NWS Daily Summary

Daily Weather History Graph

Daily Weather History Graph

Search for Another Location

Airport or City:

Astronomy

Jun. 13, 2018 Rise Set
Actual Time 5:22 AM PDT 7:59 PM PDT
Civil Twilight 4:52 AM PDT 8:29 PM PDT
Nautical Twilight 4:14 AM PDT 9:07 PM PDT
Astronomical Twilight 3:33 AM PDT 9:49 PM PDT
Moon 5:26 AM PDT (6/13) 8:01 PM PDT (6/13)
Length of Visible Light 15h 36m
Length of Day
14h 36m
Waning Crescent, 0% of the Moon is Illuminated
Jun 13
Waning Crescent
Jun 13
New
Jun 20
First Quarter
Jun 27
Full
Jul 6
Last Quarter

Hourly Weather History & Observations

Time (PDT) Temp. Dew Point Humidity Pressure Visibility Wind Dir Wind Speed Gust Speed Precip Events Conditions
12:53 AM 88.0 °F 28.0 °F 12% 29.72 in 10.0 mi Calm Calm - N/A   Clear
1:53 AM 84.9 °F 30.0 °F 14% 29.71 in 10.0 mi WSW 3.5 mph - N/A   Clear
2:53 AM 82.0 °F 30.9 °F 16% 29.72 in 10.0 mi NNW 3.5 mph - N/A   Clear
3:53 AM 80.1 °F 30.9 °F 17% 29.73 in 10.0 mi NNW 4.6 mph - N/A   Clear
4:53 AM 80.1 °F 30.0 °F 16% 29.73 in 10.0 mi NW 4.6 mph - N/A   Clear
5:53 AM 77.0 °F 30.9 °F 19% 29.75 in 10.0 mi North 5.8 mph - N/A   Clear
6:53 AM 80.1 °F 32.0 °F 17% 29.77 in 10.0 mi North 6.9 mph - N/A   Clear
7:53 AM 86.0 °F 30.0 °F 13% 29.78 in 10.0 mi ENE 3.5 mph - N/A   Clear
8:53 AM 89.1 °F 27.0 °F 11% 29.79 in 10.0 mi ESE 3.5 mph - N/A   Clear
9:53 AM 93.0 °F 30.9 °F 11% 29.78 in 10.0 mi SSE 4.6 mph - N/A   Clear
10:53 AM 97.0 °F 28.0 °F 9% 29.77 in 10.0 mi SE 10.4 mph - N/A   Clear
11:53 AM 100.0 °F 23.0 °F 6% 29.75 in 10.0 mi SE 10.4 mph 21.9 mph N/A   Clear
12:53 PM 102.9 °F 21.9 °F 6% 29.74 in 10.0 mi SSE 13.8 mph 24.2 mph N/A   Clear
1:53 PM 105.1 °F 16.0 °F 4% 29.71 in 10.0 mi South 11.5 mph 24.2 mph N/A   Clear
2:53 PM 106.0 °F 3.9 °F 4% 29.68 in 10.0 mi North - - N/A   Clear
3:53 PM 106.0 °F 3.0 °F 4% 29.66 in 10.0 mi South 8.1 mph - N/A   Clear
4:53 PM 106.0 °F 10.9 °F 4% 29.64 in 10.0 mi SSW 17.3 mph - N/A   Clear
5:53 PM 106.0 °F 14.0 °F 4% 29.63 in 10.0 mi SW 15.0 mph 20.7 mph N/A   Clear
6:53 PM 104.0 °F 19.9 °F 5% 29.63 in 10.0 mi SW 17.3 mph - N/A   Clear
7:53 PM 100.9 °F 19.9 °F 5% 29.64 in 10.0 mi WSW 10.4 mph - N/A   Clear
8:53 PM 98.1 °F 23.0 °F 7% 29.65 in 10.0 mi WSW 6.9 mph - N/A   Clear
9:53 PM 95.0 °F 27.0 °F 9% 29.67 in 10.0 mi South 6.9 mph - N/A   Clear
10:53 PM 93.9 °F 28.0 °F 10% 29.66 in 10.0 mi SSW 8.1 mph - N/A   Clear
11:53 PM 91.0 °F 28.0 °F 10% 29.67 in 10.0 mi West 8.1 mph - N/A   Clear